Weather Roundup
Issued by NWS Springfield, MO

Home | Current Version | Previous Version | Text Only | Print | Product List | Glossary On
Versions: 1 2 3 4 5 6 7 8 9 10 11 12 13 14 15 16 17 18 19 20 21 22 23 24 25 26 27 28 29 30 31 32 33 34 35 36 37 38 39 40 41 42 43 44 45 46 47 48 49 50
000
NZUS99 KSGF 291907
HRRSGF

HOURLY WEATHER
NATIONAL WEATHER SERVICE SPRINGFIELD MO
200 PM CDT FRI MAY 29 2015

......SGF CWA......

CITY           SKY/WX    TMP DP  RH WIND       PRES   REMARKS
SPRINGFIELD    CLOUDY    74  66  76 NE10      30.02F
JOPLIN         CLOUDY    71  65  81 E6        30.01F
WEST PLAINS    PTSUNNY   80  67  64 S8        30.04F
ROLLA          LGT RAIN  69  64  84 SW5       30.04F
OSAGE BEACH    CLOUDY    72  63  73 CALM      30.03F
BRANSON        PTSUNNY   73  68  83 NE9       30.02F

......SURROUNDING SGF CWA......

CITY           SKY/WX    TMP DP  RH WIND       PRES   REMARKS
CHANUTE        LGT RAIN  69  68  96 SE8       30.01S
PARSONS        LGT RAIN  70  69  97 VRB3      30.02R
COFFEYVILLE    LGT RAIN  70  68  93 CALM      30.00S
EMPORIA        CLOUDY    68  66  93 S10       29.99R
GROVE OK       CLOUDY    75  73  94 NE8       29.98F
ROGERS AR      PTSUNNY   78  69  73 SE7       29.99F
SILOAM SPRINGS CLOUDY    77  64  65 SE6       29.99F
HARRISON AR    PTSUNNY   83  67  58 S9        30.00F
NEAR YELLVILLE   N/A     84  70  61 SE6       29.98F

......KANSAS AND MISSOURI......

CITY           SKY/WX    TMP DP  RH WIND       PRES   REMARKS
KANSAS CTY INT LGT RAIN  68  66  93 SW7       30.00F
DOWNTOWN KC    LGT RAIN  70  65  84 S5        30.00F
COLUMBIA       LGT RAIN  71  66  84 SW9       30.05F
SEDALIA        CLOUDY    71  65  81 SW8       30.04S
ST JOSEPH      LGT RAIN  68  65  90 S10       29.98F
ST LOUIS       PTSUNNY   82  66  58 SW7       30.01F
SPIRIT OF STL  PTSUNNY   82  68  62 W12       29.99F
KIRKSVILLE     CLOUDY    73  66  78 SW9       30.02R
WICHITA        CLOUDY    75  63  66 SE6       29.98S
TOPEKA         LGT RAIN  69  66  90 S6        29.99S
OLATHE         LGT RAIN  68  66  93 S5        30.00F

......TENNESSEE......

CITY           SKY/WX    TMP DP  RH WIND       PRES   REMARKS
MEMPHIS        PTSUNNY   82  66  58 S12       30.07S
NASHVILLE      PTSUNNY   82  69  64 S9        30.13F

......ARKANSAS.......

CITY           SKY/WX    TMP DP  RH WIND       PRES   REMARKS
FAYETTEVILLE   CLOUDY    78  67  68 S14       29.98F
FT SMITH       CLOUDY    82  70  66 SE8       29.94F
LITTLE ROCK    PTSUNNY   87  70  56 SE17      29.98F HX  92

......OKLAHOMA.......

CITY           SKY/WX    TMP DP  RH WIND       PRES   REMARKS
TULSA          HVY RAIN  68  67  96 NE8       29.96F FOG
PONCA CITY     CLOUDY    74  65  73 SE8       29.97F
MCALESTER      LGT RAIN  73  70  90 CALM      29.93F FOG
OKLAHOMA CITY  CLOUDY    74  62  66 CALM      29.96F

......IOWA............

CITY           SKY/WX    TMP DP  RH WIND       PRES   REMARKS
DES MOINES     LGT RAIN  74  65  73 SW17G25   29.94R
QUAD CITIES    PTSUNNY   80  67  64 SW14      29.93F

......ILLINOIS........

CITY           SKY/WX    TMP DP  RH WIND       PRES   REMARKS
QUINCY         CLOUDY    78  67  68 SW12      29.99S
CHICAGO        CLOUDY    79  65  62 S15G24    29.96F




USA.gov is the U.S. government's official web portal to all federal, state and local government web resources and services.